RYR45XF LZIB-EGSS

Flight info

Callsign RYR45XF
Flight time N/A
Altitude 38000
Route BERVA A4 ODNEM DCT RAPET DCT MASEK DCT TIVUN DCT NOGRO M40 RINIS
Aircraft B738/M-SDE3FGILRWY/SB1

Departure

Time 2026-04-28 17:17
Airport M. R. Štefánik Airport (LZIB)

Arrival

Time N/A
Airport London Stansted Airport (EGSS)
Time Latitude Longitude Altitude Speed Heading
2026-04-28 16:49 48.16890 17.20060 442 ft 0 kts 314°
2026-04-28 17:10 48.16889 17.20062 442 ft 1 kts 314°
2026-04-28 17:10 48.16880 17.20079 442 ft 2 kts 295°
2026-04-28 17:10 48.16875 17.20100 442 ft 2 kts 281°
2026-04-28 17:11 48.16874 17.20123 442 ft 2 kts 265°
2026-04-28 17:11 48.16877 17.20145 442 ft 2 kts 249°
2026-04-28 17:11 48.16884 17.20164 442 ft 2 kts 233°
2026-04-28 17:11 48.16889 17.20175 442 ft 1 kts 224°
2026-04-28 17:12 48.16893 17.20180 442 ft 0 kts 223°
2026-04-28 17:14 48.16889 17.20174 442 ft 3 kts 223°
2026-04-28 17:14 48.16862 17.20144 442 ft 2 kts 186°
2026-04-28 17:14 48.16833 17.20181 442 ft 10 kts 134°
2026-04-28 17:14 48.16761 17.20295 442 ft 19 kts 133°
2026-04-28 17:15 48.16689 17.20347 442 ft 11 kts 211°
2026-04-28 17:15 48.16626 17.20270 442 ft 13 kts 220°
2026-04-28 17:15 48.16548 17.20167 442 ft 16 kts 220°
2026-04-28 17:15 48.16453 17.20046 443 ft 19 kts 220°
2026-04-28 17:16 48.16347 17.19910 443 ft 19 kts 220°
2026-04-28 17:16 48.16244 17.19797 443 ft 17 kts 193°
2026-04-28 17:16 48.16145 17.19866 443 ft 16 kts 131°
2026-04-28 17:16 48.16119 17.19994 443 ft 13 kts 56°
2026-04-28 17:17 48.16199 17.20112 443 ft 28 kts 44°
2026-04-28 17:17 48.16556 17.20623 441 ft 111 kts 43°
2026-04-28 17:17 48.17277 17.21651 589 ft 162 kts 45°
2026-04-28 17:17 48.18048 17.22792 1531 ft 158 kts 43°
2026-04-28 17:18 48.18827 17.23903 2372 ft 158 kts 43°
2026-04-28 17:18 48.19562 17.24981 3184 ft 149 kts 44°
2026-04-28 17:18 48.20355 17.26118 3629 ft 165 kts 43°
2026-04-28 17:18 48.21223 17.27350 4163 ft 178 kts 43°
2026-04-28 17:19 48.22150 17.28672 4660 ft 194 kts 40°
2026-04-28 17:19 48.23289 17.29914 5083 ft 214 kts 32°
2026-04-28 17:19 48.24615 17.31173 5100 ft 235 kts 32°
2026-04-28 17:19 48.26009 17.32565 5304 ft 248 kts 33°
2026-04-28 17:20 48.27490 17.34107 5884 ft 266 kts 34°
2026-04-28 17:20 48.28479 17.35151 6493 ft 266 kts 34°
2026-04-28 17:20 48.30507 17.37247 7618 ft 271 kts 31°
2026-04-28 17:20 48.32120 17.38728 8487 ft 274 kts 28°
2026-04-28 17:21 48.33770 17.40167 9310 ft 278 kts 27°
2026-04-28 17:21 48.35450 17.41635 10086 ft 281 kts 27°
2026-04-28 17:21 48.37124 17.43119 10903 ft 284 kts 27°
2026-04-28 17:22 48.40565 17.46206 12280 ft 297 kts 27°
2026-04-28 17:22 48.42341 17.47804 13028 ft 298 kts 27°
2026-04-28 17:22 48.44137 17.49351 13726 ft 301 kts 22°
2026-04-28 17:23 48.48136 17.50946 15234 ft 300 kts
2026-04-28 17:23 48.50209 17.51354 15925 ft 303 kts
2026-04-28 17:23 48.52314 17.51779 16614 ft 306 kts
2026-04-28 17:23 48.54415 17.52255 17298 ft 308 kts
2026-04-28 17:24 48.56539 17.52775 17944 ft 311 kts
2026-04-28 17:24 48.58669 17.53219 18538 ft 312 kts 359°
2026-04-28 17:24 48.60825 17.53036 19156 ft 308 kts 343°
2026-04-28 17:24 48.62780 17.51879 19758 ft 305 kts 328°
2026-04-28 17:25 48.64491 17.50023 20407 ft 304 kts 316°
2026-04-28 17:25 48.67462 17.45398 21559 ft 309 kts 311°
2026-04-28 17:25 48.68911 17.43006 22101 ft 311 kts 311°
2026-04-28 17:26 48.70392 17.40587 22671 ft 312 kts 312°
2026-04-28 17:26 48.71867 17.38211 23205 ft 314 kts 312°
2026-04-28 17:26 48.73388 17.35782 23649 ft 318 kts 312°
2026-04-28 17:26 48.74896 17.33385 24165 ft 319 kts 312°
2026-04-28 17:27 48.76436 17.30941 24693 ft 319 kts 312°
2026-04-28 17:27 48.77956 17.28529 25147 ft 321 kts 312°
2026-04-28 17:27 48.79512 17.26057 25616 ft 323 kts 311°
2026-04-28 17:27 48.81024 17.23656 26340 ft 316 kts 311°
2026-04-28 17:28 48.82536 17.21251 26891 ft 314 kts 311°
2026-04-28 17:28 48.85325 17.16217 27849 ft 311 kts 302°
2026-04-28 17:28 48.86385 17.13413 28324 ft 309 kts 296°
2026-04-28 17:29 48.87302 17.10455 28789 ft 308 kts 294°
2026-04-28 17:29 48.88178 17.07507 29368 ft 303 kts 294°
2026-04-28 17:29 48.89041 17.04631 29852 ft 300 kts 294°
2026-04-28 17:30 48.90781 16.98888 30649 ft 299 kts 295°
2026-04-28 17:30 48.92510 16.93186 31351 ft 296 kts 294°
2026-04-28 17:30 48.93370 16.90344 31690 ft 295 kts 295°
2026-04-28 17:31 48.94228 16.87505 31996 ft 294 kts 294°
2026-04-28 17:31 48.95933 16.81861 32585 ft 292 kts 295°
2026-04-28 17:32 48.97628 16.76234 33165 ft 289 kts 295°
2026-04-28 17:32 48.98463 16.73459 33467 ft 286 kts 295°
2026-04-28 17:32 48.99295 16.70690 33695 ft 286 kts 295°
2026-04-28 17:32 49.00124 16.67916 33908 ft 286 kts 295°
2026-04-28 17:33 49.00947 16.65163 34157 ft 285 kts 295°
2026-04-28 17:33 49.01777 16.62384 34425 ft 282 kts 295°
2026-04-28 17:33 49.02584 16.59688 34649 ft 281 kts 295°
2026-04-28 17:33 49.03121 16.57891 34751 ft 282 kts 296°
2026-04-28 17:34 49.04213 16.54239 34940 ft 282 kts 296°
2026-04-28 17:34 49.05020 16.51526 34993 ft 286 kts 296°
2026-04-28 17:34 49.05859 16.48708 35034 ft 290 kts 296°
2026-04-28 17:34 49.06695 16.45894 35078 ft 294 kts 296°
2026-04-28 17:35 49.07552 16.43008 35114 ft 299 kts 295°
2026-04-28 17:35 49.08407 16.40130 35158 ft 303 kts 295°
2026-04-28 17:35 49.10174 16.34163 35235 ft 312 kts 295°
2026-04-28 17:36 49.12002 16.27973 35317 ft 322 kts 295°
2026-04-28 17:36 49.13865 16.21645 35406 ft 332 kts 295°
2026-04-28 17:37 49.15790 16.15091 35499 ft 343 kts 294°
2026-04-28 17:37 49.17767 16.08353 35580 ft 354 kts 295°
2026-04-28 17:38 49.19804 16.01380 35660 ft 365 kts 295°
2026-04-28 17:38 49.21881 15.94249 35813 ft 372 kts 294°
2026-04-28 17:39 49.23995 15.86965 36069 ft 375 kts 294°
2026-04-28 17:39 49.26083 15.79751 36504 ft 372 kts 295°
2026-04-28 17:40 49.27135 15.76107 36580 ft 375 kts 295°
2026-04-28 17:40 49.28198 15.72421 36683 ft 378 kts 295°
2026-04-28 17:40 49.29256 15.68746 36936 ft 377 kts 295°
2026-04-28 17:40 49.30314 15.65065 37143 ft 377 kts 295°
2026-04-28 17:41 49.31370 15.61383 37247 ft 379 kts 294°
2026-04-28 17:41 49.32438 15.57662 37396 ft 381 kts 294°
2026-04-28 17:41 49.33498 15.53957 37642 ft 379 kts 294°
2026-04-28 17:41 49.34549 15.50278 37798 ft 381 kts 294°
2026-04-28 17:42 49.35611 15.46553 37985 ft 380 kts 295°
2026-04-28 17:42 49.37733 15.39097 38150 ft 383 kts 295°
2026-04-28 17:43 49.39841 15.31677 38129 ft 381 kts 294°
2026-04-28 17:43 49.41951 15.24215 38135 ft 383 kts 294°
2026-04-28 17:44 49.44065 15.16719 38136 ft 383 kts 294°
2026-04-28 17:44 49.46182 15.09189 38151 ft 385 kts 294°
2026-04-28 17:45 49.48285 15.01672 38164 ft 384 kts 294°
2026-04-28 17:45 49.50390 14.94136 38160 ft 384 kts 294°
2026-04-28 17:46 49.52498 14.86570 38151 ft 385 kts 294°
2026-04-28 17:46 49.54593 14.79027 38171 ft 387 kts 294°
2026-04-28 17:47 49.56691 14.71444 38164 ft 386 kts 294°
2026-04-28 17:47 49.58776 14.63881 38149 ft 383 kts 294°
2026-04-28 17:48 49.60857 14.56306 38162 ft 386 kts 294°
2026-04-28 17:48 49.62944 14.48688 38168 ft 386 kts 294°
2026-04-28 17:49 49.65018 14.41101 38170 ft 386 kts 294°
2026-04-28 17:49 49.67096 14.33472 38166 ft 386 kts 293°
2026-04-28 17:50 49.69165 14.25839 38167 ft 385 kts 293°
2026-04-28 17:50 49.71218 14.18247 38172 ft 385 kts 293°
2026-04-28 17:51 49.73284 14.10585 38173 ft 385 kts 293°
2026-04-28 17:51 49.75339 14.02936 38164 ft 385 kts 293°